Flag Weather past 2 weeks in Windhoek, Namibia

Now
59 °F

Sunny.


Feels Like: 58 °F
Forecast: 58 / 90 °F
Wind: 6 mph from Southwest

Location: J. G. Strijdom

Current Time: Nov 28, 2014 at 8:05:04 AM

Latest Report: Nov 28, 2014 at 7:00 AM


Visibility: 10 mi

Pressure: 30.18 "Hg

Humidity: 18%

Dew point: 16 °F

Location of WindhoekLocation

Historic Weather in Windhoek — Graph

°F

Windhoek temperature yesterday

Maximum temperature yesterday: 88 °F (at 2:00 PM)
Minimum temperature yesterday: 46 °F (at 11:00 PM)
Average temperature yesterday: 63 °F

Past Weeks' High & Low Weather Summary

 TemperatureHumidityPressure
High93 °F (Nov 25, 3:00 PM)93% (Nov 17, 3:00 AM)30.33 "Hg (Nov 17, 3:00 AM)
Low0 °F (Nov 24, 2:00 AM)6% (Nov 23, 5:00 PM)30.04 "Hg (Nov 13, 4:00 PM)
Average61 °F28%30.17 "Hg
* Reported Nov 13 7:00 AM — Nov 28 7:00 AM, Windhoek, Weather by CustomWeather, © 2014

Note: Actual official high and low records may vary slightly from our data, if they occured in-between our weather recording intervals... More about our weather records

Advertising

Windhoek weather history for previous 24 hours

 ConditionsComfort  
Time TempWeatherWind HumidityBarometerVisibility
7:00 AM
Nov 28
59 °FSunny.6 mph18%30.18 "Hg10 mi
6:00 AM32 °FChilly.3 mph25%30.15 "HgN/A
5:00 AM37 °FChilly.7 mph22%30.12 "HgN/A
4:00 AM41 °FQuite cool.6 mph22%30.12 "HgN/A
3:00 AM43 °FQuite cool.7 mph21%30.12 "HgN/A
2:00 AM46 °FCool.9 mph18%30.12 "HgN/A
1:00 AM41 °FQuite cool.3 mph22%30.12 "HgN/A
12:00 AM43 °FQuite cool.3 mph19%30.12 "HgN/A
11:00 PM
Nov 27
46 °FCool.7 mph14%30.12 "HgN/A
10:00 PM52 °FCool.10 mph10%30.09 "HgN/A
9:00 PM55 °FRefreshingly cool.8 mph12%30.09 "HgN/A
8:00 PM59 °FRefreshingly cool.7 mph17%30.09 "HgN/A
7:00 PM64 °FMild.12 mph13%30.07 "HgN/A
6:00 PM84 °FPassing clouds.12 mph10%30.04 "HgN/A
5:00 PM86 °FPassing clouds.13 mph10%30.04 "HgN/A
2:00 PM88 °FPassing clouds.16 mph9%30.04 "HgN/A
1:00 PM86 °FPassing clouds.15 mph11%30.09 "HgN/A
12:00 PM84 °FPassing clouds.8 mph10%30.09 "HgN/A
Weather by CustomWeather, © 2014

See weather overviewHow to use our weather pages